Content
SEND FEEDBACK

Daily
Averages
Monthly
Summary
United States of America

BARTON HILLS, MICHIGAN


Home > North America > United States > Michigan
Elevation: 899 feet     Latitude: 42 18N     Longitude: 083 43W

WEATHER
 
SELECT A DAY
Number of Records: 207,049;   Date Range: 1/1/95 - 10/22/14
 
SHARE

PRINT THIS DATA

[ ← Previous Day ]
WEATHER ALMANAC - JANUARY 17, 2013
[ Next Day → ]
[ °C ]   °F
Weather ElementAverageHighLow
Temperature30.4 °F37 °F (1:53 pm)19.9 °F (9:53 pm)
Dewpoint17.9 °F27 °F (1:53 am)3.9 °F (9:53 pm)
Humidity60.7 %75 % (1:53 am)43 % (4:53 pm)
Barometer30.16 in30.33 in (11:53 pm)30.01 in (1:53 am)
Wind Speed10.6 mph19.6 mph (2:53 pm)
Wind Gust31.1 mph (8:53 pm)
Weather ElementAverage
Visibility10 mi
Wind DirectionNW (309.6 °)

Weather ElementTotal
Precipitation---
Heating Degree Days36.6 (Base 65)
Averaged from 24 records on January 17, 2013
WEATHER CONDITIONS BREAKOUT
WIND DIRECTION BREAKOUT
WEATHER BY HOUR - JANUARY 17, 2013
[ °C ]   °F
Local TimeTemperatureDewpointHumidityBarometerVisibilityWind DirectionWind SpeedGust SpeedPrecipitationEventsConditions
1:53 AM34.0 °F27.0 °F75 %30.01 in10.0 miWNW (290°)9.2 mphOvercast
2:53 AM35.1 °F26.1 °F70 %30.04 in10.0 miWNW (300°)12.7 mphOvercast
3:34 AM33.8 °F26.6 °F75 %30.02 in10.0 miWNW (300°)8.1 mphOvercast
3:53 AM34.0 °F26.1 °F73 %30.05 in10.0 miWNW (300°)6.9 mphOvercast
4:53 AM34.0 °F26.1 °F73 %30.07 in10.0 miWNW (300°)6.9 mphOvercast
5:14 AM33.8 °F26.6 °F75 %30.06 in10.0 miWNW (290°)4.6 mphOvercast
5:53 AM32.0 °F25.0 °F75 %30.10 in10.0 miWNW (300°)4.6 mphPartly Cloudy
7:53 AM30.9 °F23.0 °F72 %30.13 in10.0 miNW (310°)5.8 mphClear
8:53 AM30.0 °F21.0 °F69 %30.16 in10.0 miNNW (330°)6.9 mphClear
9:53 AM32.0 °F21.9 °F66 %30.19 in10.0 miNorth (350°)10.4 mphClear
10:53 AM34.0 °F21.0 °F59 %30.20 in10.0 miNNW (340°)10.4 mphClear
11:53 AM35.1 °F19.0 °F52 %30.18 in10.0 miNNW (330°)11.5 mphScattered Clouds
12:53 PM36.0 °F19.0 °F50 %30.15 in10.0 miWNW (290°)12.7 mph21.9 mphClear
1:53 PM37.0 °F19.0 °F48 %30.13 in10.0 miNW (320°)12.7 mph20.7 mphScattered Clouds
2:53 PM36.0 °F18.0 °F48 %30.12 in10.0 miWNW (290°)19.6 mph25.3 mphClear
3:53 PM34.0 °F16.0 °F48 %30.14 in10.0 miWNW (300°)13.8 mph27.6 mphClear
4:53 PM30.9 °F10.9 °F43 %30.17 in10.0 miWNW (300°)12.7 mph27.6 mphPartly Cloudy
5:53 PM28.0 °F12.9 °F53 %30.21 in10.0 miNW (310°)15.0 mph21.9 mphClear
6:53 PM24.1 °F12.0 °F60 %30.25 in10.0 miNW (320°)10.4 mph19.6 mphPartly Cloudy
7:53 PM21.9 °F10.0 °F60 %30.29 in10.0 miNW (310°)12.7 mphPartly Cloudy
8:53 PM21.0 °F6.1 °F53 %30.31 in10.0 miNW (320°)18.4 mph31.1 mphClear
9:53 PM19.9 °F3.9 °F50 %30.32 in10.0 miNW (320°)12.7 mph21.9 mphScattered Clouds
10:53 PM21.0 °F6.1 °F53 %30.32 in10.0 miNW (310°)9.2 mphOvercast
11:53 PM19.9 °F7.0 °F57 %30.33 in10.0 miWNW (300°)6.9 mphOvercast
Hourly data recorded from KARB, located miles away from Barton Hills, Michigan







STORIES FROM OUR PARTNERS